Home > Weather > Knittelfeld > Past weeks

Flag for Austria Past Weather in Knittelfeld, Styria, Austria — Yesterday and Last 2 Weeks

Now
81 °F

Broken clouds.


Feels Like: 81 °F
Forecast: 51 / 78 °F
Wind: 8 mph from Southeast

Location: Zeltweg

Current Time: Jun 30, 2016 at 4:17:14 PM

Latest Report: Jun 30, 2016 at 3:50 PM


Visibility: 25 mi

Pressure: 29.98 "Hg (27.87 "Hg at 641m altitude)

Humidity: 42%

Dew Point: 55 °F

Location of KnittelfeldLocation

Past Weather in Knittelfeld — Graph

°F

Knittelfeld Temperature Yesterday

Maximum temperature yesterday: 82 °F (at 4:20 PM)
Minimum temperature yesterday: 50 °F (at 4:50 AM)
Average temperature yesterday: 71 °F

High & Low Weather Summary for the Past Weeks

 TemperatureHumidityPressure
High86 °F (Jun 24, 2:50 PM)100% (Jun 20, 5:50 AM)30.36 "Hg (Jun 20, 5:50 AM)
Low48 °F (Jun 21, 4:50 AM)30% (Jun 30, 2:20 PM)29.59 "Hg (Jun 17, 5:50 AM)
Average67 °F65%30.06 "Hg
* Reported Jun 15 2:20 PM — Jun 30 2:50 PM, Knittelfeld, Weather by CustomWeather, © 2016

Note: Actual official high and low records may vary slightly from our data, if they occured in-between our weather recording intervals... More about our weather records

Advertising

Knittelfeld Weather History for the Previous 24 Hours

Scroll right to see more
 ConditionsComfort  
Time TempWeatherWind HumidityBarometerVisibility
2:50 PM
Thu, Jun 30
81 °FBroken clouds.7 mph32%29.98 "Hg25 mi
2:20 PM82 °FBroken clouds.6 mph30%30.01 "Hg25 mi
1:50 PM82 °FBroken clouds.5 mph32%30.01 "Hg25 mi
1:20 PM81 °FBroken clouds.7 mph32%30.01 "Hg25 mi
12:50 PM79 °FBroken clouds.3 mph42%30.04 "Hg25 mi
12:20 PM79 °FPartly sunny.2 mph39%30.04 "Hg25 mi
11:50 AM77 °FPartly sunny.3 mph47%30.04 "Hg25 mi
11:20 AM73 °FPartly sunny.2 mph57%30.04 "Hg25 mi
10:50 AM72 °FPartly sunny.3 mph65%30.04 "Hg25 mi
10:20 AM70 °FPartly sunny.2 mph64%30.07 "Hg25 mi
9:50 AM68 °FPartly sunny.1 mph69%30.07 "Hg25 mi
9:20 AM64 °FPartly sunny.1 mph73%30.07 "Hg25 mi
8:50 AM63 °FPartly sunny.1 mph77%30.07 "Hg25 mi
8:20 AM63 °FPartly sunny.1 mph77%30.07 "Hg25 mi
7:50 AM61 °FPartly sunny.2 mph83%30.07 "Hg25 mi
7:20 AM61 °FPartly sunny.1 mph83%30.07 "Hg25 mi
6:50 AM59 °FPartly sunny.1 mph82%30.07 "Hg25 mi
5:50 AM55 °FPassing clouds.1 mph94%30.07 "Hg19 mi
10:50 PM
Wed, Jun 29
68 °FPassing clouds.3 mph64%30.04 "Hg19 mi
9:50 PM72 °FPassing clouds.5 mph53%29.95 "Hg19 mi
8:50 PM73 °FPassing clouds.6 mph50%30.01 "Hg25 mi
7:50 PM77 °FScattered clouds.7 mph44%30.01 "Hg25 mi
7:20 PM77 °FScattered clouds.7 mph47%29.98 "Hg25 mi
6:50 PM77 °FScattered clouds.8 mph44%29.98 "Hg25 mi
6:20 PM77 °FScattered clouds.8 mph44%29.98 "Hg25 mi
5:50 PM79 °FScattered clouds.7 mph39%29.98 "Hg25 mi
5:20 PM81 °FScattered clouds.6 mph37%29.98 "Hg25 mi
4:50 PM79 °FPassing clouds.8 mph39%30.01 "Hg25 mi
4:20 PM82 °FPassing clouds.3 mph35%30.01 "Hg25 mi
Weather by CustomWeather, © 2016

See weather overviewHow to use our weather pages